When you browse on this site, cookies collect data to enhance your experience and personalize the content and advertising you see.
Visit our Privacy Policy to learn more. By continuing to use the site, you agree to this use of cookies and data.
  • en France
  • Liste des pays
  • À 7 jours
  • Température de l'eau
  • Carte satellitaire
  • Carte météo
  • Widgets météo
  • user-avatar
    Se connecter

    Météo par heure à Korçё

    Ce jour, 23 Janvier, Mercredi

    Heure Température Précipitation Vent Pression Humidité
    00:00 +1°C° 0 mm 3 m/s 657 mmHg 98%
    01:00 0°C° 0 mm 4 m/s 657 mmHg 98%
    02:00 +1°C° 0.3 mm 3 m/s 657 mmHg 97%
    03:00 0°C° 0.3 mm 3 m/s 656 mmHg 97%
    04:00 +1°C° 0.3 mm 2 m/s 656 mmHg 96%
    05:00 +1°C° 1.1 mm 2 m/s 656 mmHg 96%
    06:00 +1°C° 1.1 mm 2 m/s 655 mmHg 96%
    07:00 +1°C° 1.1 mm 2 m/s 655 mmHg 96%
    08:00 +1°C° 0.8 mm 2 m/s 655 mmHg 95%
    09:00 +2°C° 0.8 mm 2 m/s 655 mmHg 95%
    10:00 +2°C° 0.8 mm 2 m/s 655 mmHg 94%
    11:00 +3°C° 1 mm 1 m/s 654 mmHg 94%
    12:00 +3°C° 1 mm 1 m/s 653 mmHg 93%
    13:00 +3°C° 1 mm 1 m/s 653 mmHg 93%
    14:00 +3°C° 3.7 mm 1 m/s 652 mmHg 94%
    15:00 +3°C° 3.7 mm 1 m/s 651 mmHg 95%
    16:00 +1°C° 3.7 mm 0 m/s 651 mmHg 96%
    17:00 +2°C° 4.2 mm 1 m/s 650 mmHg 95%
    18:00 +2°C° 4.2 mm 1 m/s 650 mmHg 95%
    19:00 +2°C° 4.2 mm 1 m/s 650 mmHg 94%
    20:00 +2°C° 3.5 mm 1 m/s 649 mmHg 95%
    21:00 +2°C° 3.5 mm 1 m/s 649 mmHg 95%
    22:00 +1°C° 3.5 mm 0 m/s 649 mmHg 96%
    23:00 +2°C° 1.8 mm 1 m/s 649 mmHg 96%

    Demain, 24 Janvier, Jeudi

    Heure Température Précipitation Vent Pression Humidité
    00:00 +2°C° 1.8 mm 1 m/s 648 mmHg 96%
    01:00 +2°C° 1.8 mm 1 m/s 648 mmHg 96%
    02:00 +2°C° 2.3 mm 1 m/s 648 mmHg 96%
    03:00 +2°C° 2.3 mm 1 m/s 648 mmHg 97%
    04:00 +1°C° 2.3 mm 1 m/s 647 mmHg 97%
    05:00 +1°C° 0.8 mm 1 m/s 647 mmHg 97%
    06:00 +1°C° 0.8 mm 1 m/s 648 mmHg 97%
    07:00 +1°C° 0.8 mm 1 m/s 648 mmHg 97%
    08:00 -1°C° 0 mm 2 m/s 648 mmHg 97%
    09:00 -1°C° 0 mm 2 m/s 649 mmHg 96%
    10:00 +1°C° 0 mm 2 m/s 649 mmHg 95%
    11:00 +1°C° 0 mm 2 m/s 649 mmHg 93%
    12:00 +2°C° 0 mm 2 m/s 649 mmHg 91%
    13:00 +2°C° 0 mm 2 m/s 649 mmHg 89%
    14:00 +2°C° 0 mm 2 m/s 649 mmHg 88%
    15:00 +1°C° 0 mm 2 m/s 649 mmHg 88%
    16:00 +1°C° 0 mm 2 m/s 649 mmHg 88%
    17:00 -1°C° 0 mm 2 m/s 648 mmHg 88%
    18:00 -1°C° 0 mm 2 m/s 648 mmHg 88%
    19:00 -2°C° 0 mm 2 m/s 648 mmHg 88%
    20:00 -2°C° 0.4 mm 3 m/s 647 mmHg 89%
    21:00 -2°C° 0.4 mm 3 m/s 647 mmHg 89%
    22:00 -2°C° 0.4 mm 3 m/s 647 mmHg 89%
    23:00 -1°C° 1.4 mm 3 m/s 647 mmHg 90%

    Après-demain, 25 Janvier, Vendredi

    Heure Température Précipitation Vent Pression Humidité
    00:00 -1°C° 1.4 mm 3 m/s 646 mmHg 91%
    01:00 -1°C° 1.4 mm 3 m/s 646 mmHg 92%
    02:00 -1°C° 1 mm 3 m/s 646 mmHg 93%
    03:00 -1°C° 1 mm 2 m/s 646 mmHg 95%
    04:00 -1°C° 1 mm 2 m/s 646 mmHg 96%
    05:00 -2°C° 0 mm 2 m/s 646 mmHg 96%
    06:00 -2°C° 0 mm 2 m/s 647 mmHg 96%
    07:00 -2°C° 0 mm 2 m/s 647 mmHg 96%
    08:00 -2°C° 0 mm 2 m/s 648 mmHg 95%
    09:00 -1°C° 0 mm 2 m/s 648 mmHg 95%
    10:00 +2°C° 0 mm 1 m/s 649 mmHg 94%
    11:00 +1°C° 0 mm 2 m/s 649 mmHg 93%
    12:00 +2°C° 0 mm 2 m/s 649 mmHg 92%
    13:00 +2°C° 0 mm 2 m/s 649 mmHg 91%
    14:00 +2°C° 0 mm 2 m/s 648 mmHg 91%
    15:00 +1°C° 0 mm 2 m/s 648 mmHg 90%
    16:00 +1°C° 0 mm 2 m/s 648 mmHg 90%
    17:00 -1°C° 0 mm 2 m/s 648 mmHg 90%
    18:00 -2°C° 0 mm 2 m/s 649 mmHg 90%
    19:00 -2°C° 0 mm 2 m/s 649 mmHg 90%
    20:00 -3°C° 0 mm 2 m/s 649 mmHg 90%
    21:00 -4°C° 0 mm 2 m/s 649 mmHg 90%
    22:00 -5°C° 0 mm 2 m/s 649 mmHg 89%
    23:00 -5°C° 0 mm 2 m/s 649 mmHg 89%

    26 Janvier, Samedi

    Heure Température Précipitation Vent Pression Humidité
    00:00 -6°C° 0 mm 2 m/s 649 mmHg 89%
    01:00 -6°C° 0 mm 2 m/s 649 mmHg 89%
    02:00 -6°C° 0 mm 2 m/s 649 mmHg 87%
    03:00 -6°C° 0 mm 2 m/s 649 mmHg 86%
    04:00 -6°C° 0 mm 2 m/s 649 mmHg 85%
    05:00 -6°C° 0 mm 2 m/s 650 mmHg 84%
    06:00 -6°C° 0 mm 2 m/s 650 mmHg 84%
    07:00 -6°C° 0 mm 2 m/s 650 mmHg 83%
    08:00 -5°C° 0 mm 2 m/s 651 mmHg 82%
    09:00 -3°C° 0 mm 2 m/s 652 mmHg 81%
    10:00 -2°C° 0 mm 2 m/s 653 mmHg 80%
    11:00 -1°C° 0 mm 2 m/s 653 mmHg 80%
    12:00 +1°C° 0 mm 2 m/s 653 mmHg 81%
    13:00 +1°C° 0 mm 2 m/s 653 mmHg 82%
    14:00 +1°C° 0 mm 2 m/s 653 mmHg 83%
    15:00 -1°C° 0 mm 2 m/s 653 mmHg 85%
    16:00 +1°C° 0 mm 1 m/s 653 mmHg 86%
    17:00 -2°C° 0 mm 2 m/s 653 mmHg 87%
    18:00 -3°C° 0 mm 2 m/s 653 mmHg 87%
    19:00 -5°C° 0 mm 2 m/s 653 mmHg 88%
    20:00 -5°C° 0 mm 2 m/s 653 mmHg 87%
    21:00 -6°C° 0 mm 2 m/s 654 mmHg 86%
    22:00 -6°C° 0 mm 2 m/s 654 mmHg 85%
    23:00 -6°C° 0 mm 2 m/s 654 mmHg 83%

    27 Janvier, Dimanche

    Heure Température Précipitation Vent Pression Humidité
    00:00 -6°C° 0 mm 2 m/s 654 mmHg 81%
    01:00 -6°C° 0 mm 1 m/s 654 mmHg 80%
    02:00 -6°C° 0 mm 1 m/s 654 mmHg 78%
    03:00 -4°C° 0 mm 1 m/s 654 mmHg 76%
    04:00 -4°C° 0 mm 1 m/s 653 mmHg 74%
    05:00 -4°C° 0 mm 1 m/s 654 mmHg 73%
    06:00 -4°C° 0 mm 1 m/s 654 mmHg 72%
    07:00 -4°C° 0 mm 1 m/s 654 mmHg 71%
    08:00 -2°C° 0 mm 1 m/s 654 mmHg 71%
    09:00 0°C° 0 mm 1 m/s 655 mmHg 72%
    10:00 +2°C° 0 mm 1 m/s 656 mmHg 73%
    11:00 +2°C° 0 mm 1 m/s 656 mmHg 75%
    12:00 +3°C° 0 mm 1 m/s 655 mmHg 77%
    13:00 +3°C° 0 mm 1 m/s 655 mmHg 79%
    14:00 +2°C° 0 mm 1 m/s 655 mmHg 79%
    15:00 +2°C° 0 mm 1 m/s 655 mmHg 79%
    16:00 +1°C° 0 mm 1 m/s 655 mmHg 79%
    17:00 0°C° 0 mm 1 m/s 655 mmHg 81%
    18:00 -1°C° 0 mm 1 m/s 655 mmHg 83%
    19:00 -2°C° 0 mm 1 m/s 655 mmHg 85%
    20:00 -5°C° 0 mm 2 m/s 655 mmHg 87%
    21:00 -5°C° 0 mm 2 m/s 655 mmHg 89%
    22:00 -5°C° 0 mm 2 m/s 655 mmHg 90%
    23:00 -5°C° 0 mm 2 m/s 655 mmHg 91%

    28 Janvier, Lundi

    Heure Température Précipitation Vent Pression Humidité
    00:00 -5°C° 0 mm 2 m/s 655 mmHg 92%
    01:00 -6°C° 0 mm 3 m/s 655 mmHg 93%
    02:00 -6°C° 0 mm 3 m/s 655 mmHg 93%
    03:00 -5°C° 0 mm 3 m/s 654 mmHg 94%
    04:00 -5°C° 0 mm 3 m/s 654 mmHg 95%
    05:00 -5°C° 0 mm 3 m/s 654 mmHg 93%
    06:00 -5°C° 0 mm 3 m/s 654 mmHg 91%
    07:00 -5°C° 0 mm 3 m/s 654 mmHg 89%
    08:00 -2°C° 0 mm 3 m/s 655 mmHg 88%
    09:00 -2°C° 0 mm 4 m/s 655 mmHg 88%
    10:00 0°C° 0 mm 4 m/s 655 mmHg 87%
    11:00 0°C° 0 mm 4 m/s 655 mmHg 86%
    12:00 +1°C° 0 mm 4 m/s 654 mmHg 85%
    13:00 +1°C° 0 mm 4 m/s 654 mmHg 84%
    14:00 0°C° 0.4 mm 4 m/s 654 mmHg 85%
    15:00 0°C° 0.4 mm 4 m/s 654 mmHg 86%
    16:00 0°C° 0.4 mm 4 m/s 653 mmHg 88%
    17:00 0°C° 2.2 mm 3 m/s 653 mmHg 89%
    18:00 0°C° 2.2 mm 3 m/s 653 mmHg 90%
    19:00 0°C° 2.2 mm 3 m/s 653 mmHg 92%
    20:00 +1°C° 3.4 mm 2 m/s 653 mmHg 93%
    21:00 +1°C° 3.4 mm 2 m/s 653 mmHg 94%
    22:00 +1°C° 3.4 mm 1 m/s 653 mmHg 96%
    23:00 +1°C° 0.9 mm 1 m/s 653 mmHg 96%
    Voir plus